User: anonymous
Location: Unspecified
(0.0000°N, 0.0000°E)
Time: 09:25:50
(UTC+00:00)
Language:

CANX 3A (UNIBRITE) - Orbit

View from above orbital plane
View from above orbital plane
View from above satellite
View from above satellite

Ground track
Ground track

The orbit data is extracted from the following two-line orbital elements,

1 39092U 13009G   14211.50266838  .00000007  00000-0  18364-4 0  4340
2 39092 098.6198 045.8879 0009296 172.7991 187.3349 14.34580715 74531
Epoch (UTC): 30 July 2014 12:03:50
Eccentricity: 0.0009296
inclination: 98.6198°
perigee height: 770 km
apogee height: 783 km
right ascension of ascending node: 45.8879°
argument of perigee: 172.7991°
revolutions per day: 14.34580715
mean anomaly at epoch: 187.3349°
orbit number at epoch: 7453

The dashed part of the orbit path shows where the satellite is in the earth's shadow,  

DLR